ORBCOMM FM06 [+]

Last updated on July 6, 2021, 3:36 p.m. UTC

1 25118U 97084G   21186.93219545  .00000100  00000-0  77685-4 0  9999
2 25118  45.0175  43.7876 0001659 168.9744 323.2439 14.39259297233416
UTC
Height (km)
Latitude
Longitude
Inclination
Orbital Period
UTC large
Height (km)
Speed (km/s)
/
Latitude / Longitude
Inclination (degrees)
Orbital Period (minutes)
Azimuth
Elevation
Range (km)
Doppler Factor
iOS Compass Heading
iOS Angle